sat.trackr.live / text

‹ back to catalog

STARLINK-36594

NORAD 67574 · 2026-016P

PAYLOAD ACTIVE UNKNOWN

§ Identity

Operator
Country
US
Launch date
2026-01-25
Launch site
AFWTR
Launch vehicle
Mass (kg)
RCS (m²)

Purposes: comms

External: N2YO · Heavens-Above · Gunter

§ Orbital elements

Epoch: 2026-09-19T09:31:04.386720Z

Period
93.91 min
Inclination
97.2851°
Eccentricity
0.0000798
Mean motion
15.33449142 rev/d
Perigee alt
465.0 km
Apogee alt
466.1 km
Semi-major
6,843.7 km
B*
3.3402e-4
RAAN
321.1105°
Arg perigee
82.9388°
Mean anomaly
277.1946°
Rev number
3,655

§ Raw data

STARLINK-365941 67574U 26016P   26262.39657855  .00010725  00000+0  33402-3 0  99992 67574  97.2851 321.1105 0000798  82.9388 277.1946 15.33449142 36559

JSON: /api/v1/satellites/67574 · /tle

For live sub-satellite position, see the globe view (requires WebGL).

§ Visibility from observer

Set your observer location to see the next 7 days of passes ≥ 10°. The values pass through the URL so the page stays shareable.

No JS? Fill the form by hand. The geolocation button needs JavaScript.